User: anonymous   Login
Location: Oshawa
(43.9000°N, 78.8670°W)
Time: 21:41:33
(UTC-05:00)
Language:

Cosmos 2333 Rocket - Orbit

View from above orbital plane
View from above orbital plane
View from above satellite
View from above satellite

Ground track
Ground track

The orbit data is extracted from the following two-line orbital elements,

1 24298U 96051B   16039.89858677 -.00000059 +00000-0 -57563-5 0  9990
2 24298 070.8346 024.0484 0018280 205.9797 154.0407 14.12387379001765
Epoch (UTC): 08 February 2016 21:33:57
Eccentricity: 0.0018280
inclination: 70.8346°
perigee height: 838 km
apogee height: 864 km
right ascension of ascending node: 24.0484°
argument of perigee: 205.9797°
revolutions per day: 14.12387379
mean anomaly at epoch: 154.0407°
orbit number at epoch: 176

The dashed part of the orbit path shows where the satellite is in the earth's shadow,  

DLR